Previsão horária em Allen Park

Hoje, 17 Janeiro, Domingo

Tempo Temperatura Precipitação Vento Pressão Humidade
00:00 0°C° 0 mm 3 m/s 735 mmHg 84%
01:00 -1°C° 0 mm 4 m/s 735 mmHg 85%
02:00 -1°C° 0 mm 4 m/s 736 mmHg 86%
03:00 -1°C° 0 mm 4 m/s 736 mmHg 87%
04:00 -1°C° 0 mm 4 m/s 736 mmHg 86%
05:00 -2°C° 0 mm 4 m/s 737 mmHg 84%
06:00 -2°C° 0 mm 4 m/s 737 mmHg 82%
07:00 -2°C° 0 mm 4 m/s 737 mmHg 82%
08:00 0°C° 0 mm 3 m/s 737 mmHg 81%
09:00 0°C° 0 mm 3 m/s 738 mmHg 80%
10:00 0°C° 0 mm 3 m/s 737 mmHg 79%
11:00 0°C° 0 mm 3 m/s 737 mmHg 77%
12:00 +1°C° 0 mm 3 m/s 737 mmHg 75%
13:00 0°C° 0.2 mm 3 m/s 737 mmHg 81%
14:00 0°C° 0.2 mm 3 m/s 737 mmHg 86%
15:00 0°C° 0.2 mm 3 m/s 737 mmHg 91%
16:00 0°C° 0.2 mm 3 m/s 737 mmHg 92%
17:00 -1°C° 0.2 mm 3 m/s 737 mmHg 92%
18:00 -1°C° 0.2 mm 3 m/s 737 mmHg 93%
19:00 -1°C° 0.3 mm 3 m/s 737 mmHg 93%
20:00 -1°C° 0.3 mm 3 m/s 737 mmHg 94%
21:00 -1°C° 0.3 mm 3 m/s 737 mmHg 95%
22:00 -1°C° 0.2 mm 3 m/s 737 mmHg 94%
23:00 -2°C° 0.2 mm 2 m/s 737 mmHg 94%

Amanhã, 18 Janeiro, Segunda-feira

Tempo Temperatura Precipitação Vento Pressão Humidade
00:00 -2°C° 0.2 mm 2 m/s 737 mmHg 94%
01:00 -2°C° 0 mm 2 m/s 737 mmHg 93%
02:00 -2°C° 0 mm 2 m/s 737 mmHg 91%
03:00 -2°C° 0 mm 2 m/s 737 mmHg 90%
04:00 -2°C° 0 mm 2 m/s 738 mmHg 89%
05:00 -2°C° 0 mm 3 m/s 738 mmHg 87%
06:00 -4°C° 0 mm 3 m/s 738 mmHg 86%
07:00 -2°C° 0 mm 3 m/s 739 mmHg 85%
08:00 -2°C° 0 mm 3 m/s 739 mmHg 84%
09:00 -2°C° 0 mm 3 m/s 740 mmHg 83%
10:00 -1°C° 0 mm 3 m/s 740 mmHg 80%
11:00 -1°C° 0 mm 3 m/s 740 mmHg 77%
12:00 -2°C° 0 mm 4 m/s 740 mmHg 74%
13:00 -2°C° 0.1 mm 4 m/s 741 mmHg 76%
14:00 -2°C° 0.1 mm 4 m/s 741 mmHg 79%
15:00 -2°C° 0.1 mm 4 m/s 741 mmHg 82%
16:00 -2°C° 0.1 mm 4 m/s 742 mmHg 81%
17:00 -2°C° 0.1 mm 4 m/s 742 mmHg 81%
18:00 -3°C° 0.1 mm 4 m/s 743 mmHg 80%
19:00 -3°C° 0 mm 4 m/s 743 mmHg 80%
20:00 -3°C° 0 mm 4 m/s 743 mmHg 80%
21:00 -5°C° 0 mm 5 m/s 744 mmHg 81%
22:00 -5°C° 0 mm 5 m/s 744 mmHg 80%
23:00 -4°C° 0 mm 4 m/s 744 mmHg 79%

Depois de amanhã, 19 Janeiro, Terça-feira

Tempo Temperatura Precipitação Vento Pressão Humidade
00:00 -4°C° 0 mm 4 m/s 744 mmHg 78%
01:00 -4°C° 0 mm 4 m/s 744 mmHg 78%
02:00 -4°C° 0 mm 4 m/s 744 mmHg 78%
03:00 -4°C° 0 mm 4 m/s 744 mmHg 78%
04:00 -4°C° 0 mm 4 m/s 745 mmHg 78%
05:00 -5°C° 0 mm 5 m/s 745 mmHg 78%
06:00 -5°C° 0 mm 5 m/s 745 mmHg 78%
07:00 -4°C° 0 mm 5 m/s 746 mmHg 75%
08:00 -4°C° 0 mm 5 m/s 746 mmHg 72%
09:00 -4°C° 0 mm 5 m/s 746 mmHg 70%
10:00 -4°C° 0 mm 6 m/s 747 mmHg 67%
11:00 -4°C° 0 mm 6 m/s 747 mmHg 65%
12:00 -3°C° 0 mm 6 m/s 747 mmHg 62%
13:00 -3°C° 0 mm 6 m/s 747 mmHg 62%
14:00 -2°C° 0 mm 5 m/s 747 mmHg 61%
15:00 -2°C° 0 mm 5 m/s 747 mmHg 61%
16:00 -4°C° 0 mm 5 m/s 747 mmHg 63%
17:00 -4°C° 0 mm 5 m/s 747 mmHg 65%
18:00 -5°C° 0 mm 5 m/s 747 mmHg 67%
19:00 -5°C° 0 mm 5 m/s 747 mmHg 69%
20:00 -6°C° 0 mm 5 m/s 747 mmHg 71%
21:00 -6°C° 0 mm 5 m/s 747 mmHg 73%
22:00 -7°C° 0 mm 5 m/s 747 mmHg 71%
23:00 -7°C° 0 mm 5 m/s 747 mmHg 70%

20 Janeiro, Quarta-feira

Tempo Temperatura Precipitação Vento Pressão Humidade
00:00 -7°C° 0 mm 5 m/s 747 mmHg 68%
01:00 -7°C° 0 mm 5 m/s 747 mmHg 67%
02:00 -7°C° 0 mm 5 m/s 747 mmHg 67%
03:00 -8°C° 0 mm 5 m/s 747 mmHg 66%
04:00 -8°C° 0 mm 5 m/s 747 mmHg 65%
05:00 -8°C° 0 mm 5 m/s 748 mmHg 65%
06:00 -8°C° 0 mm 5 m/s 748 mmHg 64%
07:00 -8°C° 0 mm 4 m/s 748 mmHg 63%
08:00 -8°C° 0 mm 4 m/s 748 mmHg 62%
09:00 -8°C° 0 mm 4 m/s 749 mmHg 62%
10:00 -8°C° 0 mm 4 m/s 748 mmHg 60%
11:00 -7°C° 0 mm 4 m/s 748 mmHg 59%
12:00 -7°C° 0 mm 4 m/s 748 mmHg 58%
13:00 -5°C° 0 mm 4 m/s 747 mmHg 58%
14:00 -5°C° 0 mm 4 m/s 746 mmHg 58%
15:00 -5°C° 0 mm 4 m/s 746 mmHg 58%
16:00 -6°C° 0 mm 5 m/s 745 mmHg 60%
17:00 -6°C° 0 mm 5 m/s 744 mmHg 61%
18:00 -6°C° 0 mm 5 m/s 744 mmHg 63%
19:00 -6°C° 0 mm 6 m/s 743 mmHg 66%
20:00 -6°C° 0 mm 6 m/s 742 mmHg 69%
21:00 -7°C° 0 mm 7 m/s 741 mmHg 72%
22:00 -6°C° 0 mm 7 m/s 739 mmHg 75%
23:00 -4°C° 0 mm 7 m/s 738 mmHg 79%

21 Janeiro, Quinta-feira

Tempo Temperatura Precipitação Vento Pressão Humidade
00:00 -5°C° 0 mm 8 m/s 737 mmHg 82%
01:00 -3°C° 0 mm 7 m/s 736 mmHg 83%
02:00 -3°C° 0 mm 7 m/s 735 mmHg 83%
03:00 -2°C° 0 mm 7 m/s 735 mmHg 84%
04:00 -2°C° 0 mm 6 m/s 735 mmHg 83%
05:00 -2°C° 0 mm 6 m/s 735 mmHg 82%
06:00 -2°C° 0 mm 6 m/s 735 mmHg 81%
07:00 -2°C° 0 mm 6 m/s 735 mmHg 79%
08:00 -2°C° 0 mm 6 m/s 735 mmHg 77%
09:00 -2°C° 0 mm 6 m/s 736 mmHg 74%
10:00 -2°C° 0 mm 6 m/s 736 mmHg 71%
11:00 -1°C° 0 mm 7 m/s 735 mmHg 68%
12:00 0°C° 0 mm 7 m/s 735 mmHg 64%
13:00 -1°C° 0 mm 7 m/s 735 mmHg 64%
14:00 -1°C° 0 mm 6 m/s 735 mmHg 64%
15:00 -1°C° 0 mm 6 m/s 735 mmHg 64%
16:00 -1°C° 0 mm 6 m/s 735 mmHg 66%
17:00 -2°C° 0 mm 6 m/s 735 mmHg 68%
18:00 -2°C° 0 mm 7 m/s 735 mmHg 69%
19:00 -3°C° 0.1 mm 6 m/s 736 mmHg 74%
20:00 -3°C° 0.1 mm 6 m/s 736 mmHg 79%
21:00 -3°C° 0.1 mm 6 m/s 736 mmHg 84%
22:00 -4°C° 0 mm 6 m/s 737 mmHg 80%
23:00 -4°C° 0 mm 6 m/s 737 mmHg 75%

22 Janeiro, Sexta-feira

Tempo Temperatura Precipitação Vento Pressão Humidade
00:00 -4°C° 0 mm 5 m/s 737 mmHg 71%
01:00 -4°C° 0 mm 5 m/s 738 mmHg 70%
02:00 -4°C° 0 mm 5 m/s 738 mmHg 70%
03:00 -5°C° 0 mm 5 m/s 739 mmHg 70%
04:00 -5°C° 0.1 mm 5 m/s 740 mmHg 69%
05:00 -6°C° 0.1 mm 6 m/s 741 mmHg 69%
06:00 -8°C° 0.1 mm 6 m/s 741 mmHg 68%
07:00 -9°C° 0 mm 6 m/s 742 mmHg 64%
08:00 -9°C° 0 mm 6 m/s 743 mmHg 60%
09:00 -10°C° 0 mm 6 m/s 744 mmHg 56%
10:00 -8°C° 0 mm 5 m/s 745 mmHg 55%
11:00 -8°C° 0 mm 5 m/s 745 mmHg 53%
12:00 -8°C° 0 mm 5 m/s 745 mmHg 51%
13:00 -8°C° 0 mm 5 m/s 746 mmHg 52%
14:00 -8°C° 0 mm 5 m/s 746 mmHg 53%
15:00 -8°C° 0 mm 5 m/s 746 mmHg 54%
16:00 -8°C° 0 mm 5 m/s 747 mmHg 56%
17:00 -8°C° 0 mm 5 m/s 748 mmHg 57%
18:00 -9°C° 0 mm 4 m/s 748 mmHg 59%
19:00 -9°C° 0 mm 4 m/s 749 mmHg 59%
20:00 -9°C° 0 mm 4 m/s 749 mmHg 60%
21:00 -9°C° 0 mm 4 m/s 750 mmHg 60%
22:00 -9°C° 0 mm 4 m/s 750 mmHg 61%
23:00 -10°C° 0 mm 4 m/s 750 mmHg 61%
Mostrar mais

Necessitamos do seu Consentimento

A Meteoprog e os seus Fornecedores de Serviços podem armazenar e aceder a dados pessoais como cookies, identificadores do dispositivo ou outras tecnologias semelhantes existentes no seu dispositivo e processar estes dados para personalizar conteúdos e anúncios, assim como funcionalidades nas redes sociais e análise de tráfego.

  • Armazenar e/ou aceder a informações no seu dispositivo

    Os cookies, identificadores do dispositivo ou outras informações podem ser armazenados ou acedidos no seu dispositivo, para os fins acima indicados.

  • Anúncios e conteúdos personalizados, medição de anúncios e conteúdos, dados sobre o público-alvo e desenvolvimento de produtos

    Os anúncios e os conteúdos podem ser personalizados com base num perfil. Podem ser adicionados dados adicionais para uma maior personalização dos anúncios e dos conteúdos. A eficácia dos anúncios e dos conteúdos pode ser medida. Podem ser obtidas informações sobre o público que visualizou os anúncios e os conteúdos. Estes dados podem ser usados para desenvolver ou melhorar sistemas, softwares ou a experiência do utilizador.

Ao clicar em "Eu concordo”, permitirá o uso de cookies, identificadores do dispositivo e web beacons mencionados ou outras tecnologias semelhantes. As configurações do navegador do seu dispositivo podem ser alteradas.

Para certos fins, podem ser invocados interesses legítimos ao invés de consentimento. Pode ler mais informação sobre este assunto na nossa Política de Privacidade e Cookies.